Location: De Har
(53.3413°N, 6.6858°E)
Time: 20:55:34
(UTC+00:00)

Cosmos 2360 Rocket - Pass Details

Date: 22 April 2026
Orbit: 831 x 845 km, 71.0° (Epoch: 21 May)

Event Time Altitude Azimuth Distance (km) Brightness Sun altitude
Rises 02:27:14 0° 325° (NW) 3,414 5.5 -14.6°
Reaches altitude 10° 02:29:47 10° 319° (NW) 2,476 4.7 -14.3°
Maximum altitude 02:35:07 43° 250° (WSW) 1,170 2.5 -13.8°
Drops below altitude 10° 02:40:26 10° 180° (S) 2,462 4.2 -13.2°
Sets 02:42:58 0° 174° (S) 3,393 5.0 -12.9°
